contact:dominique.lefevre@mio.osupytheas.fr, maurice.libes@osupytheas.fr, didier.mallarino@osupytheas.fr
Project:EMSO http://www.emso-fr.org/EMSO-France
Depth: 2436.0 m
Title:EMSO Ligure Ouest : Data MII capteur AQUADOPP
Date,Latitude,Longitude,X_East,Y_North,Z_Up,Amplitude_X,Amplitude_Y,Amplitude_Z,Batterie,SoundSpeed,Heading,Pitch,Roll,Pressure,TIS,Speed,Direction
, degrees North, degrees East, m.s-1, m.s-1,m.s-1, 1, 1, 1, Volt, m.s-1, degree, degree, degree, dbar, degree_C, m.s-1, degree
2021-01-29T00:04:02,42.805,6.029,-0.023,0.001,-0.015,105.0,112.0,103.0,13.4,1505.3,325.9,-0.7,1.8,2470.372,13.31,0.023,272.5
2021-01-29T00:07:03,42.805,6.029,-0.014,-0.013,-0.033,106.0,112.0,103.0,13.4,1505.3,325.9,-0.7,1.8,2470.368,13.32,0.019,227.1
2021-01-29T00:10:03,42.805,6.029,-0.031,-0.005,-0.017,106.0,111.0,103.0,13.3,1505.3,326.2,-0.7,1.8,2470.384,13.32,0.031,260.8
2021-01-29T00:13:03,42.805,6.029,-0.013,-0.016,0.01,106.0,111.0,103.0,13.4,1505.3,323.6,-0.7,1.8,2470.324,13.33,0.02,219.1
2021-01-29T00:16:03,42.805,6.029,-0.029,-0.002,-0.009,107.0,111.0,102.0,13.3,1505.3,327.0,-0.7,1.8,2470.374,13.33,0.029,266.1
2021-01-29T00:19:03,42.805,6.029,-0.027,0.0,-0.004,107.0,111.0,103.0,13.3,1505.3,326.7,-0.7,1.8,2470.361,13.33,0.026,270.0
2021-01-29T00:22:03,42.805,6.029,-0.029,-0.02,-0.011,106.0,110.0,103.0,13.4,1505.3,323.2,-0.7,1.8,2470.327,13.33,0.035,235.4
2021-01-29T00:25:03,42.805,6.029,-0.036,-0.014,-0.023,106.0,109.0,102.0,13.3,1505.3,326.7,-0.7,1.8,2470.362,13.33,0.038,248.8
2021-01-29T00:28:03,42.805,6.029,-0.051,-0.014,0.004,108.0,111.0,103.0,13.4,1505.3,325.1,-0.7,1.8,2470.324,13.33,0.052,254.7
2021-01-29T00:31:03,42.805,6.029,-0.025,0.017,0.008,106.0,110.0,103.0,13.4,1505.3,327.6,-0.7,1.8,2470.339,13.33,0.03,304.2
2021-01-29T00:34:03,42.805,6.029,-0.015,-0.007,0.004,107.0,111.0,102.0,13.4,1505.3,325.2,-0.7,1.8,2470.301,13.33,0.016,245.0
2021-01-29T00:37:03,42.805,6.029,-0.04,0.005,0.003,106.0,111.0,103.0,13.3,1505.3,325.7,-0.7,1.8,2470.299,13.33,0.04,277.1
2021-01-29T00:40:03,42.805,6.029,-0.013,-0.007,0.006,107.0,109.0,102.0,13.4,1505.3,323.5,-0.7,1.8,2470.296,13.33,0.014,241.7
2021-01-29T00:43:03,42.805,6.029,-0.007,-0.012,0.005,106.0,110.0,102.0,13.4,1505.3,324.5,-0.7,1.8,2470.338,13.33,0.013,210.3
2021-01-29T00:46:03,42.805,6.029,-0.023,-0.033,-0.009,106.0,108.0,101.0,13.4,1505.3,325.9,-0.7,1.8,2470.294,13.33,0.04,214.9
2021-01-29T00:49:03,42.805,6.029,-0.032,-0.012,0.0,106.0,109.0,103.0,13.4,1505.3,324.1,-0.7,1.8,2470.297,13.33,0.034,249.4
2021-01-29T00:52:03,42.805,6.029,-0.005,0.004,0.0,107.0,110.0,102.0,13.3,1505.3,325.9,-0.7,1.8,2470.311,13.33,0.006,308.7
2021-01-29T00:55:03,42.805,6.029,-0.038,0.014,-0.021,107.0,110.0,103.0,13.3,1505.3,325.5,-0.7,1.8,2470.311,13.33,0.04,290.2
2021-01-29T00:58:03,42.805,6.029,-0.019,0.008,-0.013,105.0,110.0,103.0,13.4,1505.3,326.9,-0.7,1.8,2470.295,13.33,0.02,292.8
2021-01-29T01:04:02,42.805,6.029,-0.017,-0.002,-0.03,108.0,111.0,104.0,13.4,1505.3,323.1,-0.7,1.8,2470.364,13.31,0.017,263.3
2021-01-29T01:07:03,42.805,6.029,-0.023,-0.001,-0.01,107.0,109.0,103.0,13.3,1505.3,327.5,-0.7,1.8,2470.327,13.32,0.023,267.5
2021-01-29T01:10:03,42.805,6.029,0.0,0.001,-0.004,106.0,108.0,103.0,13.4,1505.3,325.0,-0.7,1.8,2470.349,13.32,0.001,0.0
2021-01-29T01:13:03,42.805,6.029,-0.036,-0.004,-0.03,106.0,108.0,103.0,13.4,1505.3,325.1,-0.7,1.8,2470.314,13.32,0.036,263.7
2021-01-29T01:16:03,42.805,6.029,-0.058,-0.014,-0.008,107.0,109.0,101.0,13.3,1505.3,326.8,-0.7,1.8,2470.307,13.33,0.059,256.4
2021-01-29T01:19:03,42.805,6.029,-0.024,0.01,0.016,106.0,109.0,102.0,13.4,1505.3,324.8,-0.7,1.8,2470.347,13.33,0.026,292.6
2021-01-29T01:22:02,42.805,6.029,-0.049,0.004,-0.007,107.0,110.0,103.0,13.4,1505.3,327.1,-0.7,1.9,2470.298,13.33,0.049,274.7
2021-01-29T01:25:03,42.805,6.029,-0.034,0.002,0.005,104.0,107.0,102.0,13.3,1505.3,324.3,-0.7,1.8,2470.297,13.33,0.034,273.4
2021-01-29T01:28:03,42.805,6.029,-0.043,0.019,0.016,106.0,108.0,101.0,13.3,1505.3,325.9,-0.7,1.8,2470.294,13.33,0.047,293.8
2021-01-29T01:31:03,42.805,6.029,-0.047,0.002,-0.044,105.0,109.0,100.0,13.3,1505.3,325.4,-0.7,1.8,2470.286,13.33,0.047,272.4
2021-01-29T01:34:03,42.805,6.029,-0.037,0.002,-0.001,106.0,108.0,102.0,13.4,1505.3,323.1,-0.7,1.8,2470.312,13.33,0.037,273.1
2021-01-29T01:37:03,42.805,6.029,-0.071,-0.013,-0.053,107.0,106.0,102.0,13.4,1505.3,327.1,-0.7,1.8,2470.321,13.33,0.072,259.6
2021-01-29T01:40:03,42.805,6.029,-0.021,0.013,-0.012,105.0,108.0,100.0,13.3,1505.3,323.9,-0.7,1.8,2470.317,13.33,0.024,301.8
2021-01-29T01:43:03,42.805,6.029,-0.074,0.015,-0.04,102.0,108.0,102.0,13.3,1505.3,324.1,-0.7,1.8,2470.312,13.33,0.075,281.5
2021-01-29T01:46:03,42.805,6.029,-0.03,0.012,0.013,104.0,107.0,101.0,13.4,1505.3,327.3,-0.7,1.8,2470.348,13.33,0.032,291.8
2021-01-29T01:49:03,42.805,6.029,-0.051,0.014,-0.025,103.0,109.0,101.0,13.3,1505.3,322.5,-0.7,1.8,2470.306,13.33,0.052,285.3
2021-01-29T01:52:03,42.805,6.029,-0.047,0.014,-0.017,103.0,107.0,102.0,13.4,1505.3,323.6,-0.7,1.8,2470.373,13.33,0.049,286.6
2021-01-29T01:55:03,42.805,6.029,-0.029,-0.008,-0.008,103.0,107.0,101.0,13.4,1505.3,326.0,-0.7,1.8,2470.334,13.33,0.03,254.6
2021-01-29T01:58:03,42.805,6.029,-0.047,0.005,-0.009,103.0,107.0,100.0,13.4,1505.3,324.5,-0.7,1.8,2470.319,13.33,0.047,276.1
2021-01-29T02:04:03,42.805,6.029,-0.061,0.002,-0.015,102.0,106.0,100.0,13.4,1505.3,324.2,-0.7,1.9,2470.352,13.31,0.061,271.9
2021-01-29T02:07:03,42.805,6.029,-0.029,0.008,-0.026,104.0,108.0,101.0,13.4,1505.3,324.9,-0.7,1.9,2470.337,13.31,0.03,285.4
2021-01-29T02:10:03,42.805,6.029,-0.058,0.012,-0.003,102.0,108.0,100.0,13.3,1505.3,324.8,-0.7,1.8,2470.341,13.32,0.059,281.7
2021-01-29T02:13:03,42.805,6.029,-0.026,0.013,0.01,102.0,109.0,101.0,13.4,1505.3,324.8,-0.7,1.8,2470.328,13.32,0.029,296.6
2021-01-29T02:16:03,42.805,6.029,-0.045,0.001,-0.024,102.0,108.0,100.0,13.4,1505.3,324.8,-0.7,1.8,2470.314,13.32,0.045,271.3
2021-01-29T02:19:03,42.805,6.029,-0.069,0.0,0.016,104.0,109.0,100.0,13.4,1505.3,324.4,-0.7,1.8,2470.346,13.32,0.068,270.0
2021-01-29T02:22:03,42.805,6.029,-0.038,0.015,0.005,103.0,107.0,100.0,13.4,1505.3,325.4,-0.7,1.9,2470.301,13.32,0.04,291.5
2021-01-29T02:25:03,42.805,6.029,-0.063,0.022,0.027,104.0,107.0,102.0,13.3,1505.3,326.7,-0.7,1.8,2470.364,13.32,0.066,289.2
2021-01-29T02:28:03,42.805,6.029,-0.05,0.009,-0.002,102.0,107.0,100.0,13.4,1505.3,323.1,-0.7,1.8,2470.356,13.32,0.05,280.2
2021-01-29T02:31:03,42.805,6.029,-0.045,0.014,0.009,102.0,107.0,100.0,13.4,1505.3,326.1,-0.7,1.8,2470.353,13.32,0.047,287.3
2021-01-29T02:34:03,42.805,6.029,-0.029,0.025,0.0,103.0,108.0,100.0,13.4,1505.3,326.7,-0.7,1.9,2470.32,13.32,0.038,310.8
2021-01-29T02:37:03,42.805,6.029,-0.053,-0.004,-0.013,103.0,107.0,100.0,13.3,1505.3,324.5,-0.7,1.8,2470.339,13.32,0.053,265.7
2021-01-29T02:40:03,42.805,6.029,-0.025,0.009,-0.014,104.0,107.0,101.0,13.3,1505.3,328.4,-0.6,1.8,2470.337,13.33,0.026,289.8
2021-01-29T02:43:03,42.805,6.029,-0.044,-0.011,0.013,103.0,106.0,101.0,13.4,1505.3,327.7,-0.7,1.9,2470.324,13.33,0.045,256.0
2021-01-29T02:46:03,42.805,6.029,-0.081,0.022,-0.059,102.0,106.0,104.0,13.4,1505.3,324.9,-0.7,1.8,2470.355,13.33,0.083,285.2
2021-01-29T02:49:03,42.805,6.029,-0.057,0.0,-0.022,101.0,107.0,101.0,13.4,1505.3,322.6,-0.7,1.8,2470.335,13.33,0.057,270.0
2021-01-29T02:52:03,42.805,6.029,-0.048,0.011,0.007,102.0,105.0,100.0,13.4,1505.3,323.3,-0.7,1.8,2470.254,13.33,0.049,282.9
2021-01-29T02:55:03,42.805,6.029,-0.056,-0.025,-0.039,103.0,105.0,100.0,13.3,1505.3,323.4,-0.7,1.8,2470.286,13.32,0.061,245.9
2021-01-29T02:58:03,42.805,6.029,-0.062,0.018,0.006,103.0,106.0,100.0,13.4,1505.3,323.0,-0.7,1.8,2470.317,13.33,0.064,286.2
2021-01-29T03:04:03,42.805,6.029,-0.05,0.034,-0.007,102.0,106.0,100.0,13.4,1505.3,328.4,-0.7,1.8,2470.339,13.31,0.06,304.2
2021-01-29T03:07:03,42.805,6.029,-0.06,0.006,-0.002,104.0,105.0,99.0,13.4,1505.3,327.7,-0.7,1.8,2470.372,13.31,0.06,275.7
2021-01-29T03:10:03,42.805,6.029,-0.056,-0.013,0.024,102.0,105.0,100.0,13.4,1505.3,324.5,-0.7,1.8,2470.356,13.32,0.057,256.9
2021-01-29T03:13:03,42.805,6.029,-0.031,0.02,0.0,101.0,107.0,99.0,13.4,1505.3,326.2,-0.7,1.9,2470.365,13.32,0.036,302.8
2021-01-29T03:16:03,42.805,6.029,-0.025,0.005,0.004,102.0,107.0,99.0,13.3,1505.3,324.6,-0.7,1.8,2470.348,13.32,0.025,281.3
2021-01-29T03:19:03,42.805,6.029,-0.026,0.007,0.011,100.0,105.0,100.0,13.3,1505.3,326.9,-0.7,1.8,2470.36,13.32,0.026,285.1
2021-01-29T03:22:03,42.805,6.029,-0.04,-0.001,0.002,101.0,107.0,101.0,13.4,1505.3,324.5,-0.7,1.9,2470.355,13.32,0.04,268.6
2021-01-29T03:25:03,42.805,6.029,-0.065,0.019,-0.011,102.0,106.0,97.0,13.3,1505.3,328.6,-0.7,1.8,2470.354,13.33,0.067,286.3
2021-01-29T03:28:03,42.805,6.029,-0.037,0.012,-0.01,103.0,105.0,100.0,13.4,1505.3,323.5,-0.7,1.8,2470.365,13.33,0.038,288.0
2021-01-29T03:31:03,42.805,6.029,-0.027,0.011,-0.022,103.0,107.0,99.0,13.4,1505.3,323.2,-0.7,1.8,2470.319,13.33,0.029,292.2
2021-01-29T03:34:03,42.805,6.029,-0.041,0.003,-0.023,102.0,106.0,100.0,13.4,1505.3,323.1,-0.7,1.8,2470.37,13.33,0.041,274.2
2021-01-29T03:37:03,42.805,6.029,-0.06,-0.003,-0.014,102.0,106.0,98.0,13.3,1505.3,324.0,-0.7,1.8,2470.319,13.33,0.06,267.1
2021-01-29T03:40:03,42.805,6.029,-0.067,-0.003,-0.012,101.0,105.0,100.0,13.4,1505.3,326.8,-0.7,1.8,2470.365,13.33,0.067,267.4
2021-01-29T03:43:03,42.805,6.029,-0.081,0.015,-0.023,100.0,106.0,98.0,13.4,1505.3,326.7,-0.7,1.8,2470.39,13.33,0.082,280.5
2021-01-29T03:46:03,42.805,6.029,-0.065,0.001,-0.019,101.0,105.0,99.0,13.3,1505.3,324.0,-0.7,1.8,2470.372,13.33,0.065,270.9
2021-01-29T03:49:03,42.805,6.029,-0.052,-0.003,0.001,101.0,106.0,100.0,13.4,1505.3,324.2,-0.7,1.8,2470.369,13.33,0.052,266.7
2021-01-29T03:52:03,42.805,6.029,-0.055,-0.008,-0.004,100.0,106.0,100.0,13.4,1505.3,327.9,-0.7,1.8,2470.358,13.33,0.055,261.7
2021-01-29T03:55:03,42.805,6.029,-0.043,0.007,-0.003,102.0,105.0,99.0,13.4,1505.3,327.8,-0.7,1.8,2470.353,13.33,0.043,279.2
2021-01-29T03:58:03,42.805,6.029,-0.037,-0.012,-0.044,103.0,106.0,100.0,13.3,1505.3,326.1,-0.7,1.8,2470.344,13.33,0.038,252.0
2021-01-29T04:04:03,42.805,6.029,-0.05,-0.003,-0.027,101.0,107.0,99.0,13.4,1505.3,326.4,-0.7,1.8,2470.457,13.31,0.05,266.6
2021-01-29T04:07:03,42.805,6.029,-0.032,0.018,0.006,103.0,106.0,98.0,13.4,1505.3,323.2,-0.7,1.8,2470.438,13.31,0.036,299.4
2021-01-29T04:10:03,42.805,6.029,-0.053,-0.004,-0.023,102.0,105.0,99.0,13.4,1505.3,324.5,-0.7,1.8,2470.439,13.32,0.053,265.7
2021-01-29T04:13:03,42.805,6.029,-0.058,-0.004,0.024,101.0,105.0,99.0,13.3,1505.3,326.2,-0.7,1.8,2470.37,13.32,0.058,266.1
2021-01-29T04:16:03,42.805,6.029,-0.065,-0.011,0.006,101.0,106.0,98.0,13.4,1505.3,322.8,-0.7,1.8,2470.417,13.32,0.065,260.4
2021-01-29T04:19:03,42.805,6.029,-0.03,-0.004,-0.038,101.0,104.0,98.0,13.3,1505.3,324.1,-0.7,1.8,2470.433,13.32,0.03,262.4
2021-01-29T04:22:03,42.805,6.029,-0.062,-0.006,-0.033,101.0,106.0,99.0,13.3,1505.3,324.2,-0.7,1.8,2470.403,13.32,0.062,264.5
2021-01-29T04:25:03,42.805,6.029,-0.029,-0.003,0.039,99.0,107.0,98.0,13.3,1505.3,324.6,-0.7,1.8,2470.453,13.32,0.029,264.1
2021-01-29T04:28:03,42.805,6.029,-0.038,0.014,0.023,100.0,107.0,97.0,13.3,1505.3,326.4,-0.8,1.8,2470.433,13.32,0.04,290.2
2021-01-29T04:31:03,42.805,6.029,-0.053,-0.018,-0.024,100.0,105.0,99.0,13.3,1505.3,326.1,-0.7,1.8,2470.394,13.33,0.055,251.2
2021-01-29T04:34:03,42.805,6.029,-0.096,0.04,0.003,100.0,105.0,97.0,13.4,1505.3,325.6,-0.7,1.8,2470.436,13.33,0.104,292.6
2021-01-29T04:37:03,42.805,6.029,-0.038,0.006,0.0,99.0,106.0,99.0,13.4,1505.3,324.0,-0.7,1.8,2470.456,13.33,0.038,279.0
2021-01-29T04:40:03,42.805,6.029,-0.049,0.003,0.017,101.0,105.0,98.0,13.4,1505.3,326.6,-0.7,1.8,2470.461,13.33,0.049,273.5
2021-01-29T04:43:03,42.805,6.029,-0.041,0.012,0.04,101.0,105.0,98.0,13.4,1505.3,324.2,-0.7,1.8,2470.461,13.33,0.042,286.3
2021-01-29T04:46:03,42.805,6.029,-0.031,0.002,0.015,101.0,104.0,100.0,13.4,1505.3,324.6,-0.7,1.8,2470.427,13.33,0.031,273.7
2021-01-29T04:49:03,42.805,6.029,-0.035,0.026,0.028,101.0,106.0,97.0,13.4,1505.3,323.9,-0.7,1.8,2470.402,13.33,0.043,306.6
2021-01-29T04:52:03,42.805,6.029,-0.047,0.0,0.036,101.0,103.0,99.0,13.3,1505.3,324.3,-0.7,1.8,2470.426,13.33,0.047,270.0
2021-01-29T04:55:03,42.805,6.029,-0.047,-0.001,-0.024,100.0,105.0,98.0,13.4,1505.3,325.2,-0.7,1.8,2470.465,13.33,0.047,268.8
2021-01-29T04:58:03,42.805,6.029,-0.023,0.012,0.008,100.0,103.0,101.0,13.4,1505.3,325.4,-0.7,1.8,2470.431,13.33,0.025,297.6
2021-01-29T05:04:03,42.805,6.029,-0.072,0.028,0.0,100.0,105.0,98.0,13.3,1505.3,328.0,-0.7,1.8,2470.485,13.31,0.077,291.2
2021-01-29T05:07:03,42.805,6.029,-0.053,0.015,0.0,100.0,105.0,99.0,13.4,1505.3,327.4,-0.7,1.8,2470.497,13.31,0.055,285.8
2021-01-29T05:10:03,42.805,6.029,-0.027,0.02,0.032,100.0,105.0,98.0,13.4,1505.3,327.7,-0.7,1.8,2470.513,13.32,0.033,306.5
2021-01-29T05:13:03,42.805,6.029,-0.057,-0.023,-0.03,99.0,106.0,100.0,13.4,1505.3,325.7,-0.7,1.8,2470.518,13.32,0.061,248.0
2021-01-29T05:16:03,42.805,6.029,-0.051,0.005,-0.025,100.0,107.0,100.0,13.4,1505.3,324.9,-0.7,1.8,2470.486,13.32,0.051,275.6
2021-01-29T05:19:03,42.805,6.029,-0.029,-0.002,0.039,100.0,104.0,98.0,13.4,1505.3,328.2,-0.7,1.8,2470.447,13.32,0.029,266.1
2021-01-29T05:22:03,42.805,6.029,-0.058,-0.009,-0.014,101.0,106.0,98.0,13.4,1505.3,324.3,-0.7,1.8,2470.466,13.32,0.058,261.2
2021-01-29T05:25:03,42.805,6.029,-0.049,0.007,-0.01,101.0,106.0,99.0,13.4,1505.3,323.2,-0.7,1.8,2470.513,13.32,0.049,278.1
2021-01-29T05:28:03,42.805,6.029,-0.045,0.002,0.037,101.0,104.0,98.0,13.3,1505.3,322.8,-0.7,1.8,2470.492,13.33,0.045,272.5
2021-01-29T05:31:03,42.805,6.029,-0.063,0.001,-0.015,100.0,107.0,99.0,13.3,1505.3,325.0,-0.7,1.8,2470.469,13.33,0.063,270.9
2021-01-29T05:34:03,42.805,6.029,-0.032,0.001,0.002,101.0,106.0,98.0,13.4,1505.3,324.9,-0.7,1.8,2470.465,13.33,0.032,271.8
2021-01-29T05:37:03,42.805,6.029,-0.011,0.016,0.046,100.0,106.0,99.0,13.4,1505.3,325.9,-0.7,1.8,2470.506,13.33,0.019,325.5
2021-01-29T05:40:03,42.805,6.029,-0.035,0.01,0.014,101.0,106.0,98.0,13.4,1505.3,325.8,-0.7,1.8,2470.456,13.33,0.036,285.9
2021-01-29T05:43:03,42.805,6.029,-0.093,-0.006,-0.052,101.0,107.0,99.0,13.3,1505.3,324.7,-0.7,1.9,2470.489,13.33,0.093,266.3
2021-01-29T05:46:03,42.805,6.029,-0.034,-0.007,0.005,101.0,104.0,100.0,13.3,1505.3,323.8,-0.7,1.8,2470.493,13.33,0.034,258.4
2021-01-29T05:49:03,42.805,6.029,-0.053,0.001,-0.004,101.0,107.0,100.0,13.3,1505.3,326.3,-0.7,1.8,2470.535,13.33,0.053,271.1
2021-01-29T05:52:03,42.805,6.029,-0.057,0.012,0.006,101.0,106.0,99.0,13.4,1505.3,324.7,-0.7,1.8,2470.546,13.33,0.058,281.9
2021-01-29T05:55:03,42.805,6.029,-0.055,-0.001,0.009,101.0,106.0,98.0,13.3,1505.3,324.6,-0.7,1.8,2470.508,13.33,0.055,269.0
2021-01-29T05:58:03,42.805,6.029,-0.056,0.008,-0.018,100.0,106.0,99.0,13.4,1505.3,325.6,-0.7,1.8,2470.546,13.33,0.056,278.1
2021-01-29T06:04:03,42.805,6.029,-0.021,0.013,0.016,101.0,106.0,99.0,13.4,1505.3,324.6,-0.7,1.8,2470.57,13.31,0.024,301.8
2021-01-29T06:07:03,42.805,6.029,-0.075,0.002,-0.04,100.0,107.0,100.0,13.4,1505.3,326.1,-0.7,1.8,2470.527,13.31,0.075,271.5
2021-01-29T06:10:03,42.805,6.029,-0.057,0.0,-0.024,101.0,105.0,100.0,13.4,1505.3,326.4,-0.7,1.8,2470.523,13.32,0.057,270.0
2021-01-29T06:13:03,42.805,6.029,-0.053,-0.008,-0.01,99.0,106.0,99.0,13.3,1505.3,325.3,-0.7,1.8,2470.55,13.32,0.053,261.4
2021-01-29T06:16:03,42.805,6.029,-0.032,-0.001,-0.025,102.0,106.0,99.0,13.4,1505.3,325.8,-0.7,1.8,2470.535,13.32,0.032,268.2
2021-01-29T06:19:03,42.805,6.029,-0.036,0.001,0.024,102.0,105.0,99.0,13.4,1505.3,323.2,-0.7,1.8,2470.559,13.32,0.036,271.6
2021-01-29T06:22:03,42.805,6.029,-0.065,-0.003,-0.001,101.0,107.0,99.0,13.4,1505.3,324.5,-0.7,1.8,2470.563,13.32,0.065,267.4
2021-01-29T06:25:03,42.805,6.029,-0.04,0.001,-0.007,101.0,106.0,98.0,13.4,1505.3,327.6,-0.7,1.8,2470.52,13.33,0.04,271.4
2021-01-29T06:28:03,42.805,6.029,-0.045,0.003,0.032,101.0,106.0,99.0,13.4,1505.3,326.9,-0.7,1.8,2470.559,13.33,0.045,273.8
2021-01-29T06:31:03,42.805,6.029,-0.039,0.013,0.004,101.0,107.0,99.0,13.4,1505.3,327.5,-0.7,1.8,2470.516,13.33,0.041,288.4
2021-01-29T06:34:03,42.805,6.029,-0.02,-0.01,-0.004,102.0,107.0,100.0,13.4,1505.3,323.5,-0.7,1.8,2470.542,13.33,0.022,243.4
2021-01-29T06:37:03,42.805,6.029,-0.039,-0.014,-0.012,103.0,105.0,99.0,13.4,1505.3,324.2,-0.7,1.8,2470.538,13.33,0.041,250.3
2021-01-29T06:40:03,42.805,6.029,-0.044,-0.006,0.009,101.0,106.0,99.0,13.3,1505.3,324.0,-0.7,1.8,2470.542,13.33,0.044,262.2
2021-01-29T06:43:03,42.805,6.029,-0.028,0.011,0.001,103.0,107.0,99.0,13.4,1505.3,324.5,-0.7,1.8,2470.56,13.33,0.03,291.4
2021-01-29T06:46:03,42.805,6.029,-0.04,-0.001,0.005,102.0,107.0,100.0,13.4,1505.3,326.4,-0.7,1.8,2470.521,13.33,0.04,268.6
2021-01-29T06:49:03,42.805,6.029,-0.04,0.004,0.012,103.0,105.0,101.0,13.4,1505.3,323.6,-0.7,1.8,2470.505,13.33,0.04,275.7
2021-01-29T06:52:03,42.805,6.029,-0.056,-0.022,-0.032,103.0,107.0,98.0,13.4,1505.3,326.6,-0.7,1.8,2470.567,13.33,0.06,248.6
2021-01-29T06:55:03,42.805,6.029,-0.067,-0.025,-0.057,103.0,105.0,100.0,13.4,1505.3,324.7,-0.7,1.8,2470.548,13.33,0.071,249.5
2021-01-29T06:58:03,42.805,6.029,-0.025,-0.009,-0.023,102.0,106.0,100.0,13.3,1505.3,326.4,-0.7,1.8,2470.529,13.33,0.026,250.2
2021-01-29T07:04:03,42.805,6.029,-0.023,0.017,0.036,103.0,109.0,100.0,13.3,1505.3,325.1,-0.7,1.9,2470.609,13.31,0.028,306.5
2021-01-29T07:07:03,42.805,6.029,-0.003,0.004,0.004,104.0,107.0,100.0,13.4,1505.3,325.3,-0.7,1.8,2470.598,13.31,0.005,323.1
2021-01-29T07:10:03,42.805,6.029,-0.024,0.014,0.004,103.0,106.0,100.0,13.4,1505.3,328.0,-0.7,1.8,2470.588,13.32,0.027,300.3
2021-01-29T07:13:03,42.805,6.029,0.028,-0.002,0.01,103.0,106.0,99.0,13.3,1505.3,326.6,-0.7,1.9,2470.574,13.32,0.028,94.1
2021-01-29T07:16:03,42.805,6.029,-0.009,0.013,0.027,101.0,109.0,100.0,13.3,1505.3,327.6,-0.7,1.8,2470.573,13.32,0.015,325.3
2021-01-29T07:19:03,42.805,6.029,0.018,-0.013,0.034,103.0,106.0,101.0,13.4,1505.3,328.4,-0.7,1.8,2470.561,13.33,0.022,125.8
2021-01-29T07:22:03,42.805,6.029,0.016,0.0,0.066,103.0,107.0,100.0,13.4,1505.3,325.3,-0.7,1.8,2470.586,13.33,0.016,90.0
2021-01-29T07:25:03,42.805,6.029,-0.043,0.006,0.012,103.0,108.0,100.0,13.3,1505.3,328.2,-0.7,1.8,2470.554,13.33,0.043,277.9
2021-01-29T07:28:03,42.805,6.029,-0.055,0.017,0.001,103.0,106.0,100.0,13.4,1505.3,327.8,-0.7,1.8,2470.592,13.33,0.057,287.2
2021-01-29T07:31:03,42.805,6.029,-0.033,0.022,-0.012,102.0,106.0,102.0,13.4,1505.3,325.6,-0.7,1.8,2470.557,13.33,0.039,303.7
2021-01-29T07:34:03,42.805,6.029,-0.031,-0.014,-0.013,103.0,107.0,101.0,13.4,1505.3,324.5,-0.7,1.8,2470.577,13.33,0.034,245.7
2021-01-29T07:37:03,42.805,6.029,-0.04,0.001,0.004,104.0,108.0,101.0,13.3,1505.3,326.7,-0.7,1.8,2470.62,13.33,0.04,271.4
2021-01-29T07:40:03,42.805,6.029,-0.053,0.003,-0.029,103.0,107.0,100.0,13.4,1505.3,325.1,-0.7,1.8,2470.586,13.33,0.053,273.2
2021-01-29T07:43:03,42.805,6.029,-0.035,-0.01,-0.021,103.0,108.0,101.0,13.4,1505.3,323.1,-0.7,1.8,2470.587,13.33,0.036,254.1
2021-01-29T07:46:03,42.805,6.029,-0.055,0.005,0.016,104.0,108.0,100.0,13.4,1505.3,327.9,-0.7,1.8,2470.609,13.33,0.055,275.2
2021-01-29T07:49:03,42.805,6.029,-0.008,-0.015,-0.001,103.0,109.0,99.0,13.4,1505.3,326.6,-0.7,1.9,2470.578,13.33,0.017,208.1
2021-01-29T07:52:03,42.805,6.029,0.0,0.007,0.012,104.0,107.0,100.0,13.4,1505.3,325.9,-0.7,1.8,2470.594,13.33,0.007,0.0
2021-01-29T07:55:03,42.805,6.029,-0.004,-0.019,0.002,103.0,108.0,101.0,13.4,1505.3,326.0,-0.7,1.8,2470.566,13.33,0.019,191.9
2021-01-29T07:58:03,42.805,6.029,-0.02,0.022,0.0,108.0,107.0,102.0,13.3,1505.3,327.5,-0.7,1.8,2470.594,13.33,0.029,317.7
2021-01-29T08:04:03,42.805,6.029,-0.015,0.007,-0.008,105.0,108.0,101.0,13.4,1505.3,322.2,-0.8,1.8,2470.637,13.31,0.016,295.0
2021-01-29T08:07:03,42.805,6.029,-0.031,-0.004,0.012,104.0,107.0,101.0,13.4,1505.3,324.7,-0.7,1.8,2470.598,13.31,0.031,262.7
2021-01-29T08:10:03,42.805,6.029,-0.041,0.013,-0.012,104.0,108.0,101.0,13.4,1505.3,326.4,-0.7,1.8,2470.601,13.32,0.043,287.6
2021-01-29T08:13:03,42.805,6.029,-0.031,-0.016,-0.014,104.0,107.0,101.0,13.4,1505.3,325.1,-0.7,1.8,2470.61,13.32,0.034,242.7
2021-01-29T08:16:03,42.805,6.029,-0.016,0.011,-0.014,105.0,108.0,101.0,13.3,1505.3,327.0,-0.7,1.8,2470.584,13.33,0.019,304.5
2021-01-29T08:19:03,42.805,6.029,-0.024,0.0,-0.009,105.0,109.0,101.0,13.4,1505.3,326.7,-0.7,1.8,2470.581,13.33,0.024,270.0
2021-01-29T08:22:03,42.805,6.029,-0.014,-0.002,0.002,105.0,107.0,102.0,13.4,1505.3,325.5,-0.7,1.8,2470.625,13.33,0.014,261.9
2021-01-29T08:25:03,42.805,6.029,0.007,0.011,0.038,104.0,108.0,101.0,13.4,1505.3,322.8,-0.7,1.8,2470.541,13.33,0.013,32.5
2021-01-29T08:28:03,42.805,6.029,-0.071,-0.001,-0.019,103.0,108.0,101.0,13.4,1505.3,324.4,-0.7,1.8,2470.593,13.33,0.071,269.2
2021-01-29T08:31:03,42.805,6.029,-0.061,0.006,-0.025,103.0,109.0,101.0,13.4,1505.3,326.4,-0.7,1.8,2470.587,13.33,0.061,275.6
2021-01-29T08:34:03,42.805,6.029,-0.001,0.004,-0.026,104.0,108.0,100.0,13.4,1505.3,325.1,-0.7,1.8,2470.593,13.33,0.004,346.0
2021-01-29T08:37:03,42.805,6.029,-0.036,0.005,-0.012,104.0,109.0,101.0,13.4,1505.3,327.7,-0.7,1.8,2470.535,13.33,0.036,277.9
2021-01-29T08:43:02,42.805,6.029,-0.001,0.005,-0.002,105.0,108.0,100.0,13.4,1505.3,325.7,-0.7,1.8,2470.608,13.31,0.005,348.7
2021-01-29T08:46:03,42.805,6.029,-0.003,0.014,0.067,104.0,108.0,101.0,13.4,1505.3,323.3,-0.7,1.9,2470.569,13.31,0.014,347.9
2021-01-29T08:49:03,42.805,6.029,-0.068,-0.002,-0.041,105.0,110.0,101.0,13.4,1505.3,326.6,-0.7,1.8,2470.586,13.32,0.068,268.3
2021-01-29T08:52:03,42.805,6.029,-0.037,-0.001,-0.017,105.0,107.0,101.0,13.4,1505.3,324.7,-0.7,1.8,2470.58,13.32,0.037,268.5
2021-01-29T08:55:03,42.805,6.029,-0.002,0.001,0.02,103.0,108.0,101.0,13.3,1505.3,325.1,-0.7,1.8,2470.634,13.32,0.002,296.6
2021-01-29T08:58:03,42.805,6.029,-0.029,0.018,0.012,104.0,107.0,101.0,13.4,1505.3,324.3,-0.7,1.9,2470.612,13.33,0.034,301.8
2021-01-29T09:04:03,42.805,6.029,-0.031,0.017,-0.004,104.0,108.0,103.0,13.3,1505.3,327.6,-0.8,1.8,2470.649,13.31,0.035,298.7
2021-01-29T09:07:03,42.805,6.029,-0.041,-0.006,-0.012,105.0,107.0,103.0,13.3,1505.3,324.0,-0.7,1.8,2470.63,13.32,0.041,261.7
2021-01-29T09:10:03,42.805,6.029,-0.008,0.018,0.023,105.0,107.0,102.0,13.4,1505.3,322.6,-0.7,1.8,2470.604,13.32,0.019,336.0
2021-01-29T09:13:03,42.805,6.029,-0.007,0.005,0.034,104.0,108.0,99.0,13.3,1505.3,324.0,-0.7,1.8,2470.604,13.33,0.008,305.5
2021-01-29T09:16:03,42.805,6.029,-0.005,0.013,0.071,104.0,108.0,100.0,13.4,1505.3,322.6,-0.7,1.8,2470.595,13.33,0.013,339.0
2021-01-29T09:19:03,42.805,6.029,-0.005,0.01,0.033,104.0,108.0,101.0,13.4,1505.3,325.1,-0.7,1.8,2470.597,13.33,0.011,333.4
2021-01-29T09:22:03,42.805,6.029,0.004,0.019,0.025,103.0,106.0,102.0,13.4,1505.3,323.0,-0.7,1.8,2470.581,13.33,0.019,11.9
2021-01-29T09:25:03,42.805,6.029,-0.01,-0.003,0.011,104.0,110.0,100.0,13.3,1505.3,324.7,-0.7,1.8,2470.563,13.33,0.01,253.3
2021-01-29T09:28:03,42.805,6.029,-0.039,0.01,0.032,103.0,108.0,102.0,13.4,1505.3,326.1,-0.7,1.8,2470.556,13.33,0.04,284.4
2021-01-29T09:31:03,42.805,6.029,-0.03,-0.017,-0.017,105.0,108.0,102.0,13.3,1505.3,325.9,-0.7,1.9,2470.543,13.33,0.034,240.5
2021-01-29T09:37:02,42.805,6.029,-0.041,0.005,-0.014,106.0,106.0,101.0,13.4,1505.3,322.7,-0.8,1.8,2470.58,13.31,0.041,277.0
2021-01-29T09:40:03,42.805,6.029,-0.045,-0.001,-0.013,104.0,107.0,101.0,13.4,1505.3,325.2,-0.7,1.8,2470.555,13.32,0.045,268.7
2021-01-29T09:43:03,42.805,6.029,-0.022,-0.01,-0.002,103.0,108.0,102.0,13.4,1505.3,327.6,-0.7,1.8,2470.562,13.32,0.024,245.6
2021-01-29T09:46:03,42.805,6.029,-0.031,-0.014,-0.01,105.0,107.0,101.0,13.4,1505.3,325.2,-0.7,1.8,2470.572,13.33,0.034,245.7
2021-01-29T09:49:03,42.805,6.029,-0.048,-0.001,-0.008,104.0,108.0,102.0,13.4,1505.3,327.3,-0.7,1.8,2470.54,13.33,0.048,268.8
2021-01-29T09:52:03,42.805,6.029,-0.032,0.011,0.01,103.0,111.0,102.0,13.3,1505.3,323.0,-0.7,1.8,2470.575,13.33,0.033,289.0
2021-01-29T09:55:03,42.805,6.029,-0.052,-0.006,0.0,103.0,109.0,102.0,13.4,1505.3,326.9,-0.7,1.8,2470.552,13.33,0.052,263.4
2021-01-29T09:58:03,42.805,6.029,-0.043,0.0,-0.034,104.0,108.0,101.0,13.4,1505.3,325.7,-0.7,1.9,2470.553,13.33,0.043,270.0
2021-01-29T10:04:03,42.805,6.029,-0.03,-0.028,-0.033,105.0,109.0,101.0,13.3,1505.3,323.2,-0.7,1.8,2470.587,13.31,0.041,227.0